Wiscasset, ME

12:13 PM EDT on March 26, 2017 (GMT -0400)
Wiscasset

Weather History for KIWI - March, 2014

Change the Weather History Date:

Wednesday, March 5, 2014

  Actual Average Record
Temperature  
Mean Temperature 13 °F -  
Max Temperature 19 °F 35 °F 44 °F (1998)
Min Temperature 7 °F 17 °F -2 °F (2009)
Degree Days  
Heating Degree Days 52    
Moisture  
Dew Point 5 °F    
Average Humidity 64    
Maximum Humidity 80    
Minimum Humidity 40    
Precipitation  
Precipitation 0.01 in - - ()
Sea Level Pressure  
Sea Level Pressure 30.37 in    
Wind  
Wind Speed 4 mph (NE)    
Max Wind Speed 7 mph    
Max Gust Speed -    
Visibility 7 miles    
Events Snow    
Averages and records for this station are not official NWS values.
T = Trace of Precipitation, MM = Missing Value Source: NWS Daily Summary

Daily Weather History Graph

Daily Weather History Graph

Search for Another Location

Airport or City:

Trip Planner

Search our weather history database for the weather conditions in past years. The results will help you decide how hot, cold, wet, or windy it might be!

Date:

Astronomy

Mar. 05, 2014 Rise Set
Actual Time 6:08 AM EST 5:32 PM EST
Civil Twilight 5:40 AM EST 6:01 PM EST
Nautical Twilight 5:06 AM EST 6:34 PM EST
Astronomical Twilight 4:33 AM EST 7:08 PM EST
Moon 8:22 AM EST (3/5) 10:48 PM EST (3/5)
Length of Visible Light 12h 21m
Length of Day
11h 23m
Waxing Crescent, 23% of the Moon is Illuminated
Mar 5
Waxing Crescent
Mar 8
First Quarter
Mar 16
Full
Mar 23
Last Quarter
Mar 30
New

Hourly Weather History & Observations

Time (EST) Temp. Windchill Dew Point Humidity Pressure Visibility Wind Dir Wind Speed Gust Speed Precip Events Conditions
12:53 AM 19.9 °F 14.9 °F 3.9 °F 50% 30.30 in 10.0 mi Variable 3.5 mph - N/A   Clear
1:53 AM 19.0 °F - 3.9 °F 52% 30.29 in 10.0 mi Calm Calm - N/A   Overcast
2:53 AM 18.0 °F 12.7 °F 5.0 °F 57% 30.30 in 10.0 mi Variable 3.5 mph - N/A   Overcast
3:28 AM 17.1 °F 10.0 °F 8.1 °F 68% 30.31 in 2.0 mi Variable 4.6 mph - 0.00 in Snow Light Snow
3:53 AM 16.0 °F 10.4 °F 10.0 °F 77% 30.31 in 2.5 mi Variable 3.5 mph - 0.00 in Snow Light Snow
4:07 AM 16.0 °F 10.4 °F 10.0 °F 77% 30.31 in 3.0 mi Variable 3.5 mph - 0.00 in Snow Light Snow
4:53 AM 16.0 °F 10.4 °F 9.0 °F 74% 30.32 in 3.0 mi Variable 3.5 mph - 0.00 in Snow Light Snow
5:03 AM 15.1 °F 9.4 °F 9.0 °F 77% 30.32 in 2.0 mi Variable 3.5 mph - 0.00 in Snow Light Snow
5:21 AM 15.1 °F - 10.0 °F 80% 30.32 in 1.8 mi Calm Calm - 0.00 in Snow Light Snow
5:43 AM 15.1 °F 9.4 °F 10.0 °F 80% 30.32 in 2.5 mi Variable 3.5 mph - 0.01 in Snow Light Snow
5:53 AM 15.1 °F 7.7 °F 10.0 °F 80% 30.33 in 3.0 mi Variable 4.6 mph - 0.01 in Snow Light Snow
6:05 AM 15.1 °F 9.4 °F 10.0 °F 80% 30.32 in 2.5 mi Variable 3.5 mph - 0.00 in Snow Light Snow
6:53 AM 15.1 °F 7.7 °F 10.0 °F 80% 30.35 in 2.0 mi Variable 4.6 mph - 0.00 in Snow Light Snow
7:13 AM 15.1 °F 9.4 °F 10.0 °F 80% 30.35 in 1.8 mi Variable 3.5 mph - 0.00 in Snow Light Snow
7:44 AM 15.1 °F 6.4 °F 9.0 °F 77% 30.35 in 2.5 mi Variable 5.8 mph - 0.00 in Snow Light Snow
7:51 AM 15.8 °F 8.6 °F 8.6 °F 73% 30.35 in 3.0 mi Variable 4.6 mph - 0.00 in Snow Light Snow
7:53 AM 15.1 °F 5.2 °F 9.0 °F 77% 30.36 in 2.5 mi NNE 6.9 mph - 0.00 in Snow Light Snow
8:06 AM 15.1 °F 7.7 °F 8.1 °F 74% 30.36 in 3.0 mi Variable 4.6 mph - 0.00 in Snow Light Snow
8:53 AM 15.1 °F 6.4 °F 8.1 °F 74% 30.38 in 10.0 mi Variable 5.8 mph - 0.00 in   Overcast
9:53 AM 16.0 °F 7.4 °F 7.0 °F 68% 30.38 in 9.0 mi NE 5.8 mph - 0.00 in   Overcast
10:15 AM 16.0 °F 7.4 °F 6.1 °F 65% 30.37 in 10.0 mi Variable 5.8 mph - N/A   Overcast
10:53 AM 17.1 °F 7.6 °F 5.0 °F 59% 30.38 in 10.0 mi Variable 6.9 mph - N/A   Overcast
11:53 AM 18.0 °F 11.1 °F 3.9 °F 54% 30.37 in 10.0 mi Variable 4.6 mph - N/A   Overcast
12:53 PM 19.0 °F 11.1 °F 3.9 °F 52% 30.35 in 10.0 mi Variable 5.8 mph - N/A   Overcast
1:53 PM 19.9 °F 12.1 °F 1.9 °F 46% 30.34 in 10.0 mi Variable 5.8 mph - N/A   Overcast
2:53 PM 19.9 °F 13.4 °F -0.0 °F 42% 30.35 in 10.0 mi Variable 4.6 mph - N/A   Overcast
3:53 PM 19.9 °F 11.1 °F -0.9 °F 40% 30.37 in 10.0 mi Variable 6.9 mph - N/A   Overcast
4:53 PM 19.0 °F 12.3 °F -2.0 °F 40% 30.38 in 10.0 mi Variable 4.6 mph - N/A   Partly Cloudy
5:53 PM 15.1 °F - -0.9 °F 49% 30.40 in 10.0 mi Calm Calm - N/A   Clear
6:53 PM 10.0 °F - -0.0 °F 64% 30.43 in 10.0 mi Calm Calm - N/A   Clear
7:53 PM 7.0 °F - -0.9 °F 70% 30.44 in 10.0 mi Calm Calm - N/A   Clear
8:53 PM 7.0 °F 0.1 °F -0.9 °F 70% 30.47 in 8.0 mi Variable 3.5 mph - N/A   Scattered Clouds
9:53 PM 12.0 °F - -2.9 °F 51% 30.50 in 10.0 mi Calm Calm - N/A   Clear
10:53 PM 12.0 °F 5.9 °F -5.1 °F 46% 30.52 in 10.0 mi Variable 3.5 mph - N/A   Clear
11:53 PM 10.0 °F - -7.1 °F 46% 30.53 in 10.0 mi Calm Calm - N/A   Clear